Find Starlink 1304

NORAD ID: 45376 Int'l Des: 2020-019 Owner: SPXS Country: US Constellation: starlink operational
LEOCIRCULAR

現在のビュー

3D地球を読み込み中...

About Starlink 1304

Starlink 1304 (NORAD 45376) is a starlink constellation satellite (v1.0) launched Mar 18, 2020 by SPXS of US. It operates in LEO, CIRCULAR orbit with a mass of 260.00 kg.

Starlink 1304について

説明を読み込み中...

次回通過

Passes for default location (London). Set your location on the main map for personalized predictions.

高度履歴

Loading altitude history...

軌道要素

1 45376U 20019S 26169.31574968 .00086719 00000-0 88017-3 0 9992
2 45376 53.0414 21.7353 0003408 124.9723 235.1611 15.64500496345649
Epoch: Jun 18, 2026 • Age: 12 hours

現在のステータス

高度 383.0 km
速度 7.68 km/s
衛星直下点 -28.65°S, 27.97°E
打ち上げ日 Mar 18, 2020
運用期間 6.2 years
タイプ internet

技術仕様

分類 Payload
質量 260.00 kg
乾燥質量 248.00 kg
総質量 260.00 kg
長さ 0.20 m
直径 2.80 m
スパン 9.00 m
形状 Box + pan
製造者 SPXS
バスタイプ Starlink
フェーズステータス In Orbit
所有者/国 SPXS/US

Most Searched